Find Kosmos-2165

NORAD ID: 21779 Int'l Des: 1991-077 Owner: UNKSR Country: SU operational
LEOCIRCULARPOLAR

Live-Position

3D-Globus wird geladen...

Über Kosmos-2165

Beschreibung wird geladen...

Nächste Überflüge

Passes for default location (London). Set your location on the main map for personalized predictions.

Höhenverlauf

Loading altitude history...

Zweizeiliger Elementsatz

1 21779U 91077A 26105.75940279 .00000017 00000-0 35911-4 0 9998
2 21779 82.6020 272.0810 0010413 191.5762 180.4731 12.64920203589102
Epoch: 15. Apr. 2026 • Age: 17 hours

Aktueller Status

Höhe 1414.2 km
Geschwindigkeit 7.15 km/s
Subsatellitenpunkt 32.09°N, 99.62°W
Startdatum 12. Nov. 1991
Alter 34.4 years
Typ other

Technische Details

Klassifizierung Payload
Masse 225.00 kg
Trockenmasse 225.00 kg
Gesamtmasse 225.00 kg
Länge 1.60 m
Durchmesser 0.80 m
Spannweite 7.00 m
Form Cyl + Ant
Hersteller NPOPM
Bus-Typ Strela-3
Phasenstatus In Orbit
Besitzer/Staat UNKSR/SU

Most Searched